Time,TemperatureF,DewpointF,PressureIn,WindDirection,WindDirectionDegrees,WindSpeedMPH,WindSpeedGustMPH,Humidity,HourlyPrecipIn,Conditions,Clouds,dailyrainin,SoftwareType,DateUTC
2013-07-14 00:02:00,83.0,62.0,29.91,West,267,1.0,4.0,49,0.00,,,0.00,,2013-07-14 05:02:00,
2013-07-14 00:11:00,83.0,61.0,29.91,SW,232,0.0,4.0,48,0.00,,,0.00,,2013-07-14 05:11:00,
2013-07-14 00:32:00,82.0,60.0,29.91,WSW,238,0.0,4.0,47,0.00,,,0.00,,2013-07-14 05:32:00,
2013-07-14 00:43:00,81.0,59.0,29.90,SSW,205,0.0,3.0,48,0.00,,,0.00,,2013-07-14 05:43:00,
2013-07-14 00:53:00,81.0,59.0,29.90,SSW,205,0.0,3.0,48,0.00,,,0.00,,2013-07-14 05:53:00,
2013-07-14 01:01:00,81.0,59.0,29.91,NNE,27,0.0,4.0,48,0.00,,,0.00,,2013-07-14 06:01:00,
2013-07-14 01:11:00,81.0,60.0,29.91,West,277,0.0,6.0,49,0.00,,,0.00,,2013-07-14 06:11:00,
2013-07-14 01:22:00,81.0,60.0,29.91,West,277,0.0,6.0,49,0.00,,,0.00,,2013-07-14 06:22:00,
2013-07-14 01:32:00,80.0,60.0,29.91,SSW,212,0.0,2.0,50,0.00,,,0.00,,2013-07-14 06:32:00,
2013-07-14 01:42:00,80.0,60.0,29.90,WSW,257,0.0,4.0,50,0.00,,,0.00,,2013-07-14 06:42:00,
2013-07-14 01:53:00,80.0,60.0,29.90,WSW,257,0.0,4.0,50,0.00,,,0.00,,2013-07-14 06:53:00,
2013-07-14 02:02:00,79.0,60.0,29.90,SSW,203,0.0,0.0,53,0.00,,,0.00,,2013-07-14 07:02:00,
2013-07-14 02:12:00,77.0,60.0,29.90,SSW,203,0.0,0.0,56,0.00,,,0.00,,2013-07-14 07:12:00,
2013-07-14 02:22:00,77.0,60.0,29.90,SSW,203,0.0,0.0,56,0.00,,,0.00,,2013-07-14 07:22:00,
2013-07-14 02:33:00,76.0,60.0,29.89,SSW,203,0.0,0.0,58,0.00,,,0.00,,2013-07-14 07:33:00,
2013-07-14 02:43:00,76.0,61.0,29.88,WNW,284,0.0,1.0,60,0.00,,,0.00,,2013-07-14 07:43:00,
2013-07-14 02:53:00,76.0,61.0,29.88,WNW,284,0.0,1.0,60,0.00,,,0.00,,2013-07-14 07:53:00,
2013-07-14 03:01:00,76.0,61.0,29.88,WSW,252,0.0,1.0,59,0.00,,,0.00,,2013-07-14 08:01:00,
2013-07-14 03:11:00,76.0,61.0,29.88,East,101,0.0,1.0,60,0.00,,,0.00,,2013-07-14 08:11:00,
2013-07-14 03:22:00,76.0,61.0,29.88,East,101,0.0,1.0,60,0.00,,,0.00,,2013-07-14 08:22:00,
2013-07-14 03:32:00,76.0,61.0,29.88,ENE,65,0.0,1.0,59,0.00,,,0.00,,2013-07-14 08:32:00,
2013-07-14 03:42:00,76.0,61.0,29.89,WSW,245,0.0,1.0,59,0.00,,,0.00,,2013-07-14 08:42:00,
2013-07-14 03:53:00,76.0,61.0,29.89,WSW,245,0.0,1.0,59,0.00,,,0.00,,2013-07-14 08:53:00,
2013-07-14 05:01:00,75.0,62.0,29.88,WSW,250,0.0,0.0,64,0.00,,,0.00,,2013-07-14 10:01:00,
2013-07-14 05:11:00,75.0,62.0,29.89,WSW,255,1.0,4.0,65,0.00,,,0.00,,2013-07-14 10:11:00,
2013-07-14 05:21:00,75.0,62.0,29.89,WSW,255,1.0,4.0,65,0.00,,,0.00,,2013-07-14 10:21:00,
2013-07-14 05:32:00,76.0,63.0,29.91,SW,236,0.0,5.0,64,0.00,,,0.00,,2013-07-14 10:32:00,
2013-07-14 05:42:00,76.0,62.0,29.91,West,270,3.0,6.0,63,0.00,,,0.00,,2013-07-14 10:42:00,
2013-07-14 05:53:00,76.0,62.0,29.91,West,270,3.0,6.0,63,0.00,,,0.00,,2013-07-14 10:53:00,
2013-07-14 06:01:00,76.0,62.0,29.92,SW,236,0.0,4.0,63,0.00,,,0.00,,2013-07-14 11:01:00,
2013-07-14 06:11:00,76.0,63.0,29.94,WSW,248,0.0,2.0,65,0.00,,,0.00,,2013-07-14 11:11:00,
2013-07-14 06:21:00,76.0,63.0,29.94,WSW,248,0.0,2.0,65,0.00,,,0.00,,2013-07-14 11:21:00,
2013-07-14 06:32:00,76.0,64.0,29.93,West,277,0.0,4.0,66,0.00,,,0.00,,2013-07-14 11:32:00,
2013-07-14 06:43:00,76.0,64.0,29.93,WSW,252,0.0,1.0,67,0.00,,,0.00,,2013-07-14 11:43:00,
2013-07-14 06:53:00,76.0,64.0,29.93,WSW,252,0.0,1.0,67,0.00,,,0.00,,2013-07-14 11:53:00,
2013-07-14 07:02:00,76.0,64.0,29.93,WSW,252,0.0,1.0,67,0.00,,,0.00,,2013-07-14 12:02:00,
2013-07-14 07:11:00,76.0,64.0,29.93,WSW,252,0.0,1.0,67,0.00,,,0.00,,2013-07-14 12:11:00,
2013-07-14 07:22:00,75.0,64.0,29.92,West,259,0.0,1.0,69,0.00,,,0.00,,2013-07-14 12:22:00,
2013-07-14 07:33:00,75.0,64.0,29.92,SW,224,0.0,1.0,69,0.00,,,0.00,,2013-07-14 12:33:00,
2013-07-14 07:43:00,75.0,65.0,29.92,SSW,201,0.0,1.0,70,0.00,,,0.00,,2013-07-14 12:43:00,
2013-07-14 07:53:00,75.0,65.0,29.92,SSW,201,0.0,1.0,70,0.00,,,0.00,,2013-07-14 12:53:00,
2013-07-14 08:01:00,74.0,65.0,29.93,WSW,243,0.0,2.0,73,0.00,,,0.00,,2013-07-14 13:01:00,
2013-07-14 08:11:00,74.0,65.0,29.94,ENE,58,0.0,3.0,73,0.00,,,0.00,,2013-07-14 13:11:00,
2013-07-14 08:22:00,74.0,65.0,29.94,ENE,58,0.0,3.0,73,0.00,,,0.00,,2013-07-14 13:22:00,
2013-07-14 08:32:00,74.0,66.0,29.95,NE,56,0.0,0.0,75,0.00,,,0.00,,2013-07-14 13:32:00,
2013-07-14 08:42:00,74.0,67.0,29.96,ENE,58,0.0,0.0,79,0.00,,,0.00,,2013-07-14 13:42:00,
2013-07-14 08:53:00,74.0,67.0,29.96,ENE,58,0.0,0.0,79,0.00,,,0.00,,2013-07-14 13:53:00,
2013-07-14 09:01:00,72.0,67.0,29.97,SSW,202,0.0,1.0,83,0.01,,,0.01,,2013-07-14 14:01:00,
2013-07-14 09:11:00,72.0,68.0,29.98,WSW,240,0.0,2.0,86,0.02,,,0.02,,2013-07-14 14:11:00,
2013-07-14 09:33:00,71.0,67.0,29.99,SE,126,0.0,0.0,88,0.03,,,0.03,,2013-07-14 14:33:00,
2013-07-14 09:43:00,71.0,68.0,29.99,ESE,112,0.0,1.0,89,0.05,,,0.05,,2013-07-14 14:43:00,
2013-07-14 09:53:00,71.0,68.0,29.99,ESE,112,0.0,1.0,89,0.05,,,0.05,,2013-07-14 14:53:00,
2013-07-14 10:01:00,71.0,68.0,30.01,ESE,120,0.0,1.0,89,0.04,,,0.05,,2013-07-14 15:01:00,
2013-07-14 10:12:00,71.0,68.0,30.01,East,96,0.0,2.0,89,0.04,,,0.06,,2013-07-14 15:12:00,
2013-07-14 10:22:00,71.0,68.0,30.01,East,96,0.0,2.0,89,0.04,,,0.06,,2013-07-14 15:22:00,
2013-07-14 10:32:00,70.0,67.0,30.00,ENE,63,0.0,4.0,90,0.05,,,0.08,,2013-07-14 15:32:00,
2013-07-14 10:42:00,70.0,67.0,30.01,ENE,75,0.0,2.0,91,0.05,,,0.10,,2013-07-14 15:42:00,
2013-07-14 10:53:00,70.0,67.0,30.01,ENE,75,0.0,2.0,91,0.05,,,0.10,,2013-07-14 15:53:00,
2013-07-14 11:01:00,70.0,67.0,30.01,SSE,157,1.0,6.0,91,0.06,,,0.11,,2013-07-14 16:01:00,
2013-07-14 11:11:00,70.0,68.0,30.01,SE,124,0.0,4.0,92,0.07,,,0.13,,2013-07-14 16:11:00,
2013-07-14 11:22:00,70.0,68.0,30.01,SE,124,0.0,4.0,92,0.07,,,0.13,,2013-07-14 16:22:00,
2013-07-14 11:32:00,70.0,68.0,30.00,ENE,61,0.0,1.0,92,0.06,,,0.14,,2013-07-14 16:32:00,
2013-07-14 11:43:00,70.0,68.0,30.00,SE,129,0.0,1.0,92,0.06,,,0.16,,2013-07-14 16:43:00,
2013-07-14 11:53:00,70.0,68.0,30.00,SE,129,0.0,1.0,92,0.06,,,0.16,,2013-07-14 16:53:00,
2013-07-14 12:02:00,70.0,68.0,30.00,SE,131,0.0,1.0,93,0.06,,,0.17,,2013-07-14 17:02:00,
2013-07-14 12:11:00,70.0,68.0,30.01,SE,134,0.0,0.0,93,0.05,,,0.18,,2013-07-14 17:11:00,
2013-07-14 12:22:00,70.0,68.0,30.01,SE,134,0.0,0.0,93,0.05,,,0.18,,2013-07-14 17:22:00,
2013-07-14 12:32:00,71.0,69.0,30.02,SSE,166,0.0,0.0,93,0.05,,,0.19,,2013-07-14 17:32:00,
2013-07-14 12:43:00,70.0,68.0,30.01,ENE,77,0.0,1.0,92,0.04,,,0.20,,2013-07-14 17:43:00,
2013-07-14 12:53:00,70.0,68.0,30.01,ENE,77,0.0,1.0,92,0.04,,,0.20,,2013-07-14 17:53:00,
2013-07-14 13:01:00,70.0,68.0,30.00,WSW,250,0.0,1.0,92,0.04,,,0.21,,2013-07-14 18:01:00,
2013-07-14 13:11:00,70.0,68.0,29.99,NNE,27,0.0,1.0,92,0.04,,,0.22,,2013-07-14 18:11:00,
2013-07-14 13:21:00,70.0,68.0,29.99,NNE,27,0.0,1.0,92,0.04,,,0.22,,2013-07-14 18:21:00,
2013-07-14 13:32:00,70.0,68.0,29.96,North,5,1.0,6.0,92,0.05,,,0.24,,2013-07-14 18:32:00,
2013-07-14 13:42:00,70.0,67.0,29.95,East,90,1.0,5.0,91,0.04,,,0.24,,2013-07-14 18:42:00,
2013-07-14 13:52:00,70.0,67.0,29.95,East,90,1.0,5.0,91,0.04,,,0.24,,2013-07-14 18:52:00,
2013-07-14 14:01:00,70.0,67.0,29.96,NE,37,0.0,6.0,91,0.04,,,0.25,,2013-07-14 19:01:00,
2013-07-14 14:11:00,71.0,69.0,29.96,NNW,342,0.0,5.0,92,0.03,,,0.25,,2013-07-14 19:11:00,
2013-07-14 14:22:00,71.0,69.0,29.96,NNW,342,0.0,5.0,92,0.03,,,0.25,,2013-07-14 19:22:00,
2013-07-14 14:32:00,71.0,69.0,29.96,SW,236,0.0,3.0,92,0.01,,,0.25,,2013-07-14 19:32:00,
2013-07-14 14:43:00,70.0,67.0,29.97,WNW,283,1.0,5.0,91,0.01,,,0.25,,2013-07-14 19:43:00,
2013-07-14 14:52:00,70.0,67.0,29.97,WNW,283,1.0,5.0,91,0.01,,,0.25,,2013-07-14 19:52:00,
2013-07-14 15:01:00,70.0,68.0,29.97,WSW,247,1.0,6.0,92,0.00,,,0.25,,2013-07-14 20:01:00,
2013-07-14 15:11:00,70.0,68.0,29.96,West,259,0.0,6.0,92,0.00,,,0.25,,2013-07-14 20:11:00,
2013-07-14 15:22:00,70.0,68.0,29.96,West,259,0.0,6.0,92,0.00,,,0.25,,2013-07-14 20:22:00,
2013-07-14 15:32:00,70.0,67.0,29.96,WSW,247,0.0,4.0,91,0.00,,,0.25,,2013-07-14 20:32:00,
2013-07-14 15:43:00,70.0,67.0,29.96,SW,224,0.0,4.0,91,0.00,,,0.25,,2013-07-14 20:43:00,
2013-07-14 15:53:00,70.0,67.0,29.96,SW,224,0.0,4.0,91,0.00,,,0.25,,2013-07-14 20:53:00,
2013-07-14 16:01:00,70.0,68.0,29.96,NNE,20,0.0,3.0,92,0.01,,,0.26,,2013-07-14 21:01:00,
2013-07-14 16:11:00,70.0,68.0,29.96,West,274,0.0,4.0,92,0.02,,,0.27,,2013-07-14 21:11:00,
2013-07-14 17:01:00,71.0,69.0,29.94,West,274,0.0,0.0,93,0.02,,,0.28,,2013-07-14 22:01:00,
2013-07-14 17:11:00,71.0,69.0,29.96,SSE,163,0.0,1.0,93,0.01,,,0.28,,2013-07-14 22:11:00,
2013-07-14 17:22:00,71.0,69.0,29.96,SSE,163,0.0,1.0,93,0.01,,,0.28,,2013-07-14 22:22:00,
2013-07-14 17:32:00,71.0,69.0,29.95,SE,142,0.0,1.0,92,0.02,,,0.28,,2013-07-14 22:32:00,
2013-07-14 17:42:00,71.0,69.0,29.93,NNE,20,0.0,1.0,92,0.01,,,0.28,,2013-07-14 22:42:00,
2013-07-14 17:53:00,71.0,69.0,29.93,NNE,20,0.0,1.0,92,0.01,,,0.28,,2013-07-14 22:53:00,
2013-07-14 18:01:00,71.0,68.0,29.93,NNW,346,0.0,1.0,91,0.01,,,0.28,,2013-07-14 23:01:00,
2013-07-14 18:11:00,71.0,69.0,29.92,NNW,346,0.0,0.0,92,0.01,,,0.28,,2013-07-14 23:11:00,
2013-07-14 18:22:00,71.0,69.0,29.92,NNW,346,0.0,0.0,92,0.01,,,0.28,,2013-07-14 23:22:00,
2013-07-14 18:32:00,71.0,69.0,29.92,SW,232,0.0,1.0,92,0.00,,,0.28,,2013-07-14 23:32:00,
2013-07-14 18:42:00,71.0,69.0,29.92,ESE,120,0.0,1.0,92,0.00,,,0.28,,2013-07-14 23:42:00,
2013-07-14 18:53:00,71.0,69.0,29.92,ESE,120,0.0,1.0,92,0.00,,,0.28,,2013-07-14 23:53:00,
2013-07-14 19:02:00,71.0,69.0,29.93,ESE,120,0.0,0.0,92,0.00,,,0.28,,2013-07-15 00:02:00,
2013-07-14 19:11:00,71.0,69.0,29.93,ESE,120,0.0,0.0,92,0.00,,,0.28,,2013-07-15 00:11:00,
2013-07-14 19:22:00,71.0,69.0,29.93,ESE,120,0.0,0.0,92,0.00,,,0.28,,2013-07-15 00:22:00,
2013-07-14 19:32:00,71.0,69.0,29.94,ESE,120,0.0,0.0,92,0.00,,,0.28,,2013-07-15 00:32:00,
2013-07-14 19:43:00,71.0,69.0,29.94,ESE,120,0.0,0.0,92,0.00,,,0.28,,2013-07-15 00:43:00,
2013-07-14 19:53:00,71.0,69.0,29.94,ESE,120,0.0,0.0,92,0.00,,,0.28,,2013-07-15 00:53:00,
2013-07-14 20:01:00,71.0,69.0,29.94,ESE,120,0.0,0.0,92,0.00,,,0.28,,2013-07-15 01:01:00,
2013-07-14 20:11:00,71.0,69.0,29.94,ESE,120,0.0,0.0,92,0.00,,,0.28,,2013-07-15 01:11:00,
2013-07-14 20:22:00,71.0,69.0,29.94,ESE,120,0.0,0.0,92,0.00,,,0.28,,2013-07-15 01:22:00,
2013-07-14 20:32:00,71.0,69.0,29.95,ESE,120,0.0,0.0,92,0.00,,,0.28,,2013-07-15 01:32:00,
2013-07-14 20:43:00,71.0,69.0,29.95,ESE,120,0.0,0.0,92,0.00,,,0.28,,2013-07-15 01:43:00,
2013-07-14 20:53:00,71.0,69.0,29.95,ESE,120,0.0,0.0,92,0.00,,,0.28,,2013-07-15 01:53:00,
2013-07-14 21:02:00,70.0,68.0,29.96,SW,233,0.0,1.0,93,0.00,,,0.28,,2013-07-15 02:02:00,
2013-07-14 21:11:00,70.0,68.0,29.95,SE,143,0.0,1.0,93,0.00,,,0.28,,2013-07-15 02:11:00,
2013-07-14 21:22:00,70.0,68.0,29.95,SE,143,0.0,1.0,93,0.00,,,0.28,,2013-07-15 02:22:00,
2013-07-14 21:32:00,70.0,68.0,29.95,SE,126,0.0,0.0,93,0.01,,,0.30,,2013-07-15 02:32:00,
2013-07-14 21:42:00,70.0,68.0,29.95,SE,125,0.0,0.0,93,0.01,,,0.30,,2013-07-15 02:42:00,
2013-07-14 21:53:00,70.0,68.0,29.95,SE,125,0.0,0.0,93,0.01,,,0.30,,2013-07-15 02:53:00,
2013-07-14 22:02:00,70.0,68.0,29.96,SE,125,0.0,0.0,93,0.01,,,0.30,,2013-07-15 03:02:00,
2013-07-14 22:11:00,70.0,68.0,29.96,SE,126,0.0,0.0,93,0.01,,,0.30,,2013-07-15 03:11:00,
2013-07-14 22:21:00,70.0,68.0,29.96,SE,126,0.0,0.0,93,0.01,,,0.30,,2013-07-15 03:21:00,
2013-07-14 22:32:00,70.0,68.0,29.97,SE,126,0.0,0.0,94,0.00,,,0.30,,2013-07-15 03:32:00,
2013-07-14 22:43:00,70.0,68.0,29.98,SE,125,0.0,0.0,94,0.00,,,0.30,,2013-07-15 03:43:00,
2013-07-14 22:53:00,70.0,68.0,29.98,SE,125,0.0,0.0,94,0.00,,,0.30,,2013-07-15 03:53:00,
2013-07-14 23:01:00,70.0,68.0,29.98,SE,126,0.0,0.0,94,0.00,,,0.30,,2013-07-15 04:01:00,
2013-07-14 23:11:00,70.0,68.0,29.98,SE,125,0.0,0.0,94,0.00,,,0.30,,2013-07-15 04:11:00,
2013-07-14 23:22:00,70.0,68.0,29.98,SE,125,0.0,0.0,94,0.00,,,0.30,,2013-07-15 04:22:00,
2013-07-14 23:32:00,70.0,68.0,29.98,West,263,1.0,4.0,94,0.00,,,0.30,,2013-07-15 04:32:00,
2013-07-14 23:42:00,70.0,68.0,29.98,WSW,240,0.0,5.0,92,0.00,,,0.30,,2013-07-15 04:42:00,
2013-07-14 23:53:00,70.0,68.0,29.98,WSW,240,0.0,5.0,92,0.00,,,0.30,,2013-07-15 04:53:00,